Prescott, AZ

12:31 PM MST on November 13, 2019 (GMT -0700)
Love

Weather History for KPRC - September, 2019

Change the Weather History Date:

Sunday, September 1, 2019

  Actual Average Record
Temperature  
Mean Temperature 81 °F 72 °F  
Max Temperature 96 °F 85 °F 101 °F (1950)
Min Temperature 66 °F 58 °F 45 °F (1951)
Degree Days  
Heating Degree Days 0    
Month to date heating degree days 0  
Since 1 July heating degree days 0  
Cooling Degree Days 16    
Month to date cooling degree days 16  
Year to date cooling degree days 991  
Growing Degree Days 31 (Base 50)    
Moisture  
Dew Point 47 °F    
Average Humidity 36    
Maximum Humidity 61    
Minimum Humidity 15    
Precipitation  
Precipitation 0.08 in 0.07 in 0.82 in (1991)
Month to date precipitation 0.08 0.07  
Year to date precipitation 8.19 9.73  
Sea Level Pressure  
Sea Level Pressure 29.96 in    
Wind  
Wind Speed 7 mph ()    
Max Wind Speed 32 mph    
Max Gust Speed 42 mph    
Visibility 9.9 miles    
Events Rain , Thunderstorm    
T = Trace of Precipitation, MM = Missing Value Source: Averaged Metar Reports

Daily Weather History Graph

Daily Weather History Graph

Search for Another Location

Airport or City:

Astronomy

Sep. 01, 2019 Rise Set
Actual Time 6:02 AM MST 6:56 PM MST
Civil Twilight 5:36 AM MST 7:21 PM MST
Nautical Twilight 5:06 AM MST 7:52 PM MST
Astronomical Twilight 4:34 AM MST 8:23 PM MST
Moon 8:32 AM MST (9/1) 8:52 PM MST (9/1)
Length of Visible Light 13h 45m
Length of Day
12h 53m
Waxing Crescent, 8% of the Moon is Illuminated
Sep 1
Waxing Crescent
Sep 5
First Quarter
Sep 13
Full
Sep 21
Last Quarter
Sep 28
New

Hourly Weather History & Observations

Time (MST) Temp. Dew Point Humidity Pressure Visibility Wind Dir Wind Speed Gust Speed Precip Events Conditions
12:53 AM 72.0 °F 46.0 °F 40% 29.87 in 10.0 mi South 6.9 mph - N/A   Clear
1:53 AM 73.9 °F 44.1 °F 34% 29.87 in 10.0 mi South 4.6 mph - N/A   Clear
2:53 AM 73.9 °F 43.0 °F 33% 29.88 in 10.0 mi South 4.6 mph - N/A   Clear
3:53 AM 69.1 °F 45.0 °F 42% 29.89 in 10.0 mi SSW 5.8 mph - N/A   Clear
4:53 AM 69.1 °F 42.1 °F 38% 29.90 in 10.0 mi South 4.6 mph - N/A   Clear
5:53 AM 66.0 °F 43.0 °F 43% 29.93 in 10.0 mi NE 3.5 mph - N/A   Partly Cloudy
6:53 AM 68.0 °F 44.1 °F 42% 29.96 in 10.0 mi South 3.5 mph - N/A   Scattered Clouds
7:53 AM 75.9 °F 43.0 °F 31% 29.96 in 10.0 mi SE 4.6 mph - N/A   Scattered Clouds
8:53 AM 82.9 °F 41.0 °F 23% 29.96 in 10.0 mi Calm Calm - N/A   Partly Cloudy
9:53 AM 84.9 °F 46.9 °F 27% 29.96 in 10.0 mi Variable 4.6 mph - N/A   Clear
10:53 AM 89.1 °F 45.0 °F 22% 29.94 in 10.0 mi Calm Calm - N/A   Partly Cloudy
11:53 AM 91.9 °F 39.9 °F 16% 29.92 in 10.0 mi East 6.9 mph - N/A   Clear
12:53 PM 91.9 °F 39.9 °F 16% 29.91 in 10.0 mi Calm Calm - N/A   Scattered Clouds
1:53 PM 93.9 °F 39.0 °F 15% 29.87 in 10.0 mi ENE 8.1 mph - N/A   Scattered Clouds
2:14 PM 93.0 °F 39.0 °F 15% 30.16 in 10.0 mi SW 4.6 mph - N/A Thunderstorm Mostly Cloudy
2:53 PM 88.0 °F 48.9 °F 26% 29.87 in 10.0 mi WSW 18.4 mph 29.9 mph N/A   Mostly Cloudy
3:53 PM 88.0 °F 48.0 °F 25% 29.86 in 10.0 mi SSW 16.1 mph 21.9 mph N/A   Scattered Clouds
4:49 PM 84.2 °F 51.8 °F 33% 30.15 in 10.0 mi South 11.5 mph - N/A Thunderstorm Clear
4:53 PM 84.9 °F 51.1 °F 31% 29.88 in 10.0 mi South 10.4 mph - N/A Thunderstorm Clear
5:39 PM 77.0 °F 54.0 °F 45% 30.15 in 10.0 mi WNW 21.9 mph 29.9 mph 0.00 in Rain , Thunderstorm Light Thunderstorms and Rain
5:50 PM 78.8 °F 50.0 °F 36% 30.16 in 10.0 mi WNW 13.8 mph 24.2 mph 0.00 in Thunderstorm Thunderstorm
5:53 PM 80.1 °F 48.9 °F 34% 29.91 in 10.0 mi West 13.8 mph 24.2 mph 0.00 in Thunderstorm Thunderstorm
6:53 PM 72.0 °F 57.0 °F 59% 30.02 in 6.0 mi SE 20.7 mph 39.1 mph 0.00 in Rain , Thunderstorm Light Thunderstorms and Rain
7:53 PM 72.0 °F 55.0 °F 55% 29.95 in 10.0 mi West 12.7 mph - 0.07 in Rain Light Rain
8:11 PM 75.0 °F 51.1 °F 43% 30.16 in 10.0 mi WNW 10.4 mph 25.3 mph 0.01 in Rain Light Rain
8:53 PM 70.0 °F 55.0 °F 59% 29.92 in 10.0 mi SSW 15.0 mph - 0.01 in   Partly Cloudy
9:53 PM 70.0 °F 55.0 °F 59% 29.94 in 10.0 mi South 12.7 mph - N/A   Mostly Cloudy
10:53 PM 73.9 °F 52.0 °F 46% 29.94 in 10.0 mi SSW 10.4 mph - N/A   Clear
11:53 PM 72.0 °F 53.1 °F 51% 29.97 in 10.0 mi SW 13.8 mph - N/A   Clear